Tracking 31027 objects as of 19-Jul-2025
HD Live streaming from Space Station
objects crossing your sky now

DELTA 1 DEB

Track DELTA 1 DEB now!
10-day predictions


NORAD ID: 7086
Int'l Code: 1973-086CE
Perigee: 1,498.7 km
Apogee: 1,521.0 km
Inclination: 102.1 °
Period: 116.0 minutes
Semi major axis: 7880 km
RCS: 0.0523 m2 (small)
Launch date: November 6, 1973
Source: United States (US)
Launch site: AIR FORCE WESTERN TEST RANGE (AFWTR)

Note: This is SATELLITE DEBRIS
Your satellite tracking list
BELINTERSAT 1
Track 1 satellite(s)




NASA's NSSDC Master Catalog

Two Line Element Set (TLE):
1 07086U 73086CE  25199.49917170  .00000087  00000-0  97858-3 0  9994
2 07086 102.1001 167.8435 0014152 101.9019  22.9383 12.40911063339601
Source of the keplerian elements: AFSPC